Regional Weather Roundup
Issued by NWS Charleston, WV

Home | Current Version | Previous Version | Text Only | Print | Product List | Glossary Off
Versions: 1 2 3 4 5 6 7 8 9 10 11 12 13 14 15 16 17 18 19 20 21 22 23 24 25 26 27 28

000
ASUS41 KRLX 181810
RWRRLX
West Virginia Regional Weather Roundup
National Weather Service Charleston WV
200 PM EDT FRI AUG 18 2017

Note: "fair" indicates few or no clouds below 12,000 feet with no
significant weather and/or obstructions to visibility.

WVZ003-181900-
Northern Panhandle of West Virginia

CITY           SKY/WX    TMP DP  RH WIND       PRES   REMARKS
WHEELING       SUNNY     82  67  60 W16G26    29.85F
$$

WVZ009-181900-
Northwest West Virginia

CITY           SKY/WX    TMP DP  RH WIND       PRES   REMARKS
PARKERSBURG    MOSUNNY   84  71  65 W8        29.89F
$$

WVZ006-181900-
Western West Virginia

CITY           SKY/WX    TMP DP  RH WIND       PRES   REMARKS
HUNTINGTON     NOT AVBL
$$

WVZ015-181900-
West Central West Virginia

CITY           SKY/WX    TMP DP  RH WIND       PRES   REMARKS
CHARLESTON     PTSUNNY   82  73  74 S13       29.90F
$$

WVZ022-031-181900-
North Central West Virginia

CITY           SKY/WX    TMP DP  RH WIND       PRES   REMARKS
CLARKSBURG     MOSUNNY   80  73  79 SW6       29.89S
MORGANTOWN     CLOUDY    82  72  71 VRB5      29.88F
$$

WVZ025-035-042-045-181900-
Southern West Virginia

CITY           SKY/WX    TMP DP  RH WIND       PRES   REMARKS
BECKLEY        NOT AVBL
LOGAN          PTSUNNY   79  72  78 VRB6      29.95F
BLUEFIELD      PTSUNNY   72  68  87 W8        30.04F
LEWISBURG      LGT RAIN  70  68  93 SW7       29.99R
$$

WVZ047-181900-
Northern Mountains of West Virginia

CITY           SKY/WX    TMP DP  RH WIND       PRES   REMARKS
ELKINS         NOT AVBL
$$

WVZ052-181900-
Eastern Panhandle of West Virginia

CITY           SKY/WX    TMP DP  RH WIND       PRES   REMARKS
MARTINSBURG    PTSUNNY   89  72  56 SW9       29.80F HX  96
PETERSBURG     CLOUDY    83  73  72 NW8       29.86R
$$




USA.gov is the U.S. government's official web portal to all federal, state and local government web resources and services.